Date,TemperatureHighF,TemperatureAvgF,TemperatureLowF,DewpointHighF,DewpointAvgF,DewpointLowF,HumidityHigh,HumidityAvg,HumidityLow,PressureMaxIn,PressureMinIn,WindSpeedMaxMPH,WindSpeedAvgMPH,GustSpeedMaxMPH,PrecipitationSumIn
2014-1-1,54.3,49.4,43.9,54.3,49.2,43.9,100,99,96,30.24,30.00,8,6,12,0.00
2014-1-2,55.9,49.0,41.7,55.9,34.8,20.7,100,61,34,30.41,30.03,24,12,34,0.00
2014-1-3,54.7,46.1,34.3,46.8,35.0,20.7,79,65,43,30.41,30.12,12,8,17,0.00
2014-1-4,65.7,58.9,54.0,59.4,55.1,46.6,100,88,67,30.12,29.85,10,7,20,0.00
2014-1-5,60.4,53.3,40.6,60.4,41.8,14.9,100,71,33,30.33,29.79,23,12,33,0.00
2014-1-6,40.5,32.6,29.7,16.9,11.2,6.4,52,41,34,30.65,30.33,22,14,28,0.00
2014-1-7,53.6,40.5,28.4,48.6,25.4,5.9,83,55,37,30.62,30.30,12,9,19,0.00
2014-1-8,60.8,56.0,51.4,60.8,55.7,48.6,100,99,83,30.27,30.06,10,6,16,0.00
2014-1-9,63.7,59.6,55.6,63.7,59.6,55.6,100,100,100,30.15,30.00,7,3,11,0.08
2014-1-10,68.4,63.5,60.6,68.4,63.5,60.6,100,100,100,30.00,29.76,10,7,18,0.04
2014-1-11,73.8,62.5,55.8,63.9,50.1,35.4,100,71,27,30.12,29.85,12,6,19,0.00
2014-1-12,71.1,62.3,55.9,64.9,58.8,41.7,100,89,58,30.09,29.82,18,7,28,0.00
2014-1-13,71.8,63.8,55.2,67.3,47.5,27.1,100,64,28,30.15,29.82,19,8,28,0.00
2014-1-14,67.1,57.2,50.0,52.7,41.9,30.6,88,59,33,30.21,30.03,15,7,22,0.00
2014-1-15,57.2,51.7,45.5,43.3,28.5,20.7,79,42,31,30.44,30.21,20,10,26,0.00
2014-1-16,65.1,55.5,45.5,56.5,48.5,43.3,100,79,50,30.21,30.03,12,6,21,0.00
2014-1-17,60.6,54.3,48.2,53.8,37.3,24.3,100,58,30,30.30,30.09,14,8,23,0.00
2014-1-18,67.8,56.7,46.8,56.7,51.2,37.6,100,83,62,30.24,30.06,8,4,13,0.00
2014-1-19,63.9,56.0,48.9,57.0,51.5,44.2,100,87,49,30.27,30.12,12,5,15,0.00
2014-1-20,66.6,60.4,55.4,63.9,58.7,55.4,100,95,79,30.12,29.88,14,8,24,0.00
2014-1-21,62.6,56.1,49.5,59.0,30.9,22.8,100,40,29,30.36,30.00,21,12,29,0.00
2014-1-22,62.8,53.5,46.0,55.0,42.7,31.5,97,70,37,30.21,30.00,10,6,18,0.00
2014-1-23,68.2,53.5,35.4,62.8,50.7,32.7,100,91,63,30.47,29.97,30,12,40,0.00
2014-1-24,35.4,31.0,27.9,34.3,29.0,25.7,100,93,79,30.65,30.39,22,13,30,0.04
2014-1-25,54.0,41.6,31.8,46.0,34.1,25.9,94,76,41,30.39,30.03,11,7,13,0.00
2014-1-26,62.6,54.0,43.0,58.5,51.9,42.6,100,93,78,30.06,29.76,13,7,22,0.00
2014-1-27,63.0,54.8,43.9,57.4,41.7,17.2,100,67,33,30.12,29.76,21,12,28,0.00
2014-1-28,43.9,35.0,30.0,23.5,15.5,10.2,74,46,34,30.41,30.09,22,17,29,0.00
2014-1-29,44.6,37.4,31.8,31.1,20.3,12.4,59,50,41,30.47,30.27,15,11,22,0.00
2014-1-30,61.5,53.6,44.6,54.3,45.9,31.1,100,76,57,30.27,29.91,11,7,18,0.00
2014-1-31,69.1,60.4,51.8,68.5,59.5,51.8,100,97,85,29.94,29.82,10,6,19,0.00
2014-2-1,70.3,64.8,61.2,67.8,64.2,61.2,100,98,88,29.85,29.71,13,8,22,0.00
2014-2-2,68.0,55.9,43.3,68.0,54.5,37.4,100,95,76,30.15,29.76,25,12,30,0.00
2014-2-3,49.6,41.5,37.9,49.6,40.0,35.8,100,94,84,30.21,29.91,16,10,22,0.00
2014-2-4,57.4,51.9,47.8,56.1,51.5,47.8,100,99,88,30.03,29.79,16,8,21,0.16
2014-2-5,54.9,49.5,42.8,51.3,39.9,27.3,100,73,43,30.30,30.03,21,12,29,0.00
2014-2-6,42.6,37.8,35.1,28.8,23.7,20.3,65,57,46,30.39,30.27,21,14,27,0.00
2014-2-7,37.9,35.2,32.9,37.8,32.3,21.9,100,90,56,30.33,30.18,16,13,22,0.00
2014-2-8,49.8,44.3,37.8,49.8,44.2,37.8,100,100,98,30.24,30.09,12,5,15,0.00
2014-2-9,63.5,56.0,48.0,63.5,55.6,48.0,100,99,88,30.12,29.94,8,4,12,0.00
2014-2-10,67.5,56.8,45.1,67.5,56.8,45.1,100,100,100,30.06,29.91,19,10,26,0.00
2014-2-11,45.1,40.7,37.8,45.1,40.7,37.0,100,100,97,30.18,30.03,19,14,24,0.04
2014-2-12,56.7,45.1,36.0,37.0,34.2,30.7,99,69,39,30.21,30.06,18,11,26,0.00
2014-2-13,63.0,52.7,43.7,55.0,47.0,36.9,100,83,53,30.12,29.91,8,4,12,0.00
2014-2-14,70.0,60.9,53.8,64.2,58.1,53.8,100,91,69,30.00,29.82,13,7,22,0.00
2014-2-15,72.1,63.3,53.6,64.0,56.2,46.9,100,79,58,30.12,30.00,12,7,18,0.00
2014-2-16,75.2,66.9,61.3,72.7,65.2,61.3,100,95,74,30.06,29.94,10,6,18,0.00
2014-2-17,76.5,68.6,63.5,72.1,67.1,63.5,100,96,82,30.06,29.94,12,8,21,0.00
2014-2-18,73.0,68.2,65.1,72.7,67.8,65.1,100,99,91,30.06,29.91,10,7,20,0.00
2014-2-19,74.7,68.7,65.1,74.3,68.2,65.1,100,98,89,29.94,29.76,11,7,19,0.00
2014-2-20,77.0,70.7,66.7,76.5,68.1,37.2,100,94,31,29.97,29.71,19,7,26,0.00
2014-2-21,70.0,64.0,59.5,57.2,43.0,32.7,87,48,31,30.15,29.97,22,9,30,0.00
2014-2-22,70.3,65.0,60.4,69.1,63.3,56.8,100,95,86,30.03,29.85,11,6,20,0.00
2014-2-23,79.0,70.8,66.4,79.0,70.4,66.4,100,99,92,29.94,29.85,6,4,10,0.00
2014-2-24,73.9,69.1,65.8,73.9,68.9,65.8,100,99,91,30.03,29.88,13,6,20,0.00
2014-2-25,74.1,69.8,65.7,74.1,69.8,65.7,100,100,100,29.97,29.85,8,6,15,0.00
2014-2-26,71.2,54.0,43.5,71.2,53.1,41.0,100,97,89,30.18,29.85,26,16,34,0.40
2014-2-27,58.6,51.7,43.7,52.7,36.1,28.2,88,57,41,30.21,29.94,14,8,20,0.00
2014-2-28,74.8,66.5,57.6,68.5,63.8,53.2,100,91,73,29.94,29.79,14,8,24,0.00
2014-3-1,75.9,69.8,63.9,75.9,69.5,63.9,100,99,94,30.00,29.88,12,8,19,0.00
2014-3-2,77.4,68.0,44.8,76.5,67.5,44.8,100,98,77,30.06,29.79,24,11,30,0.00
2014-3-3,47.8,41.9,34.9,44.6,31.9,26.8,100,70,45,30.30,30.06,24,16,33,0.00
2014-3-4,45.3,41.4,37.4,45.3,40.3,30.7,100,96,62,30.24,30.03,19,10,26,0.56
2014-3-5,60.6,52.9,45.3,59.5,52.6,45.3,100,99,93,30.06,29.94,11,7,16,0.04
2014-3-6,67.6,59.0,52.7,57.4,51.3,43.7,100,79,46,30.21,30.03,13,6,19,0.00
2014-3-7,72.1,63.9,55.6,63.1,57.4,54.1,98,81,55,30.06,29.88,10,6,15,0.00
2014-3-8,74.3,68.4,57.9,72.1,67.3,57.4,100,96,90,30.09,29.85,20,8,27,0.00
2014-3-9,57.7,55.0,51.6,57.0,54.6,51.6,100,99,93,30.24,30.09,22,14,30,0.00
2014-3-10,65.1,59.8,55.9,63.1,58.9,55.4,100,97,90,30.24,29.91,12,2,16,0.04
2014-3-11,68.7,63.6,61.2,67.8,63.2,61.2,100,99,87,29.94,29.68,10,7,16,0.00
2014-3-12,72.0,65.3,60.3,65.3,45.7,28.8,100,56,28,30.24,29.71,24,14,32,0.00
2014-3-13,68.9,61.7,53.4,57.9,41.5,28.4,86,49,33,30.30,30.12,12,8,18,0.00
2014-3-14,74.8,67.2,61.3,66.7,63.1,57.7,100,87,69,30.12,29.91,12,8,19,0.00
2014-3-15,76.8,69.7,65.3,76.3,69.0,65.3,100,98,88,29.97,29.68,10,7,18,0.00
2014-3-16,70.7,66.8,55.6,70.7,57.5,36.9,100,76,36,30.00,29.65,27,13,38,0.00
2014-3-17,69.3,57.6,48.6,49.1,35.9,27.0,68,46,28,30.03,29.79,18,11,24,0.00
2014-3-18,72.7,65.2,59.4,63.1,56.1,47.5,98,74,56,29.85,29.71,17,10,28,0.00
2014-3-19,75.0,67.3,62.2,69.6,64.5,61.5,100,92,71,30.09,29.82,12,7,20,0.00
2014-3-20,71.4,65.5,60.8,66.4,51.8,42.3,100,64,39,30.18,30.03,15,8,20,0.00
2014-3-21,74.1,67.5,63.1,71.1,65.4,63.1,100,94,74,30.06,29.85,10,6,17,0.00
2014-3-22,75.7,70.9,67.6,75.0,70.3,67.6,100,98,91,29.94,29.85,10,7,18,0.08
2014-3-23,70.5,63.9,58.5,70.3,63.7,58.5,100,99,91,30.15,29.91,19,11,26,0.24
2014-3-24,59.2,56.8,54.7,59.0,56.4,53.1,100,99,94,30.15,30.00,16,10,20,0.00
2014-3-25,70.3,63.4,57.6,61.5,53.6,43.2,100,75,38,30.24,30.09,15,9,24,0.00
2014-3-26,67.8,65.6,62.6,66.0,59.7,48.6,100,82,57,30.18,29.94,14,10,22,0.04
2014-3-27,76.1,70.2,66.0,74.5,69.8,65.5,100,98,92,29.94,29.74,12,9,22,0.04
2014-3-28,79.5,72.3,69.1,78.8,71.5,69.1,100,97,84,29.88,29.71,10,6,16,0.00
2014-3-29,77.5,70.1,64.8,71.6,59.6,51.8,100,72,45,30.18,29.85,16,10,23,0.00
2014-3-30,77.2,70.0,64.4,70.3,63.0,54.5,100,81,47,30.21,30.03,11,6,18,0.00
2014-3-31,79.0,71.9,67.1,71.8,68.1,64.9,100,89,66,30.03,29.85,11,8,18,0.00
2014-4-1,77.5,72.5,69.4,77.0,72.1,69.4,100,99,93,29.97,29.85,11,8,20,0.00
2014-4-2,81.0,74.9,71.4,78.1,73.6,71.4,100,96,79,29.85,29.71,15,10,24,0.00
2014-4-3,80.2,75.6,72.9,79.2,75.2,72.9,100,99,93,29.79,29.65,13,9,21,0.00
2014-4-4,81.1,75.5,69.4,76.6,54.8,39.0,100,57,26,30.00,29.71,26,12,35,0.04
2014-4-5,70.7,67.9,66.4,67.6,54.8,37.9,100,66,33,30.00,29.76,16,12,26,0.00
2014-4-6,75.4,69.1,60.4,75.4,68.5,57.6,100,98,86,29.79,29.59,19,10,26,0.00
2014-4-7,70.3,62.3,54.9,67.3,58.0,54.9,100,87,63,30.00,29.76,16,9,23,0.00
2014-4-8,81.7,70.4,60.8,60.8,46.0,37.0,83,46,26,30.18,30.00,20,11,28,0.00
2014-4-9,77.4,69.4,62.6,63.0,54.8,46.4,96,61,45,30.27,30.09,12,7,20,0.00
2014-4-10,76.3,70.2,65.8,66.4,63.1,58.8,95,79,60,30.12,29.97,14,10,24,0.00
2014-4-11,78.4,71.3,66.4,69.1,65.9,63.5,99,84,62,30.03,29.91,12,8,20,0.00
2014-4-12,79.2,72.7,68.5,74.1,69.9,68.4,100,92,72,29.97,29.85,12,8,20,0.00
2014-4-13,79.0,73.0,70.7,75.9,71.8,69.6,100,96,83,29.85,29.65,13,9,21,0.00
2014-4-14,76.8,64.1,53.2,76.6,59.0,31.3,100,85,41,30.18,29.62,30,14,40,0.08
2014-4-15,63.3,55.0,46.6,32.0,28.0,22.3,55,36,29,30.33,30.12,26,13,36,0.00
2014-4-16,68.2,61.4,54.9,52.7,39.3,26.4,70,45,33,30.15,29.94,11,8,19,0.00
2014-4-17,69.6,64.1,60.8,65.5,61.2,52.7,99,90,70,30.09,29.91,15,10,23,0.00
2014-4-18,72.1,66.1,61.5,63.1,60.1,55.0,100,83,56,30.15,30.06,13,8,21,0.00
2014-4-19,74.3,67.4,60.4,66.7,62.1,59.0,100,85,61,30.15,30.06,11,6,19,0.00
2014-4-20,76.3,70.0,65.8,68.7,65.7,63.7,100,87,68,30.12,30.00,13,9,22,0.00
2014-4-21,77.4,71.0,67.1,70.7,68.0,66.6,100,91,71,30.06,29.94,10,7,17,0.00
2014-4-22,81.3,73.7,68.4,73.9,69.6,67.1,100,88,65,30.00,29.85,10,6,17,0.00
2014-4-23,81.0,73.9,69.1,75.2,70.8,69.1,100,91,72,29.91,29.76,12,7,21,0.00
2014-4-24,81.7,74.8,70.5,75.4,72.3,70.5,100,92,76,29.85,29.74,12,8,22,0.00
2014-4-25,83.3,76.2,72.3,77.0,73.4,72.1,100,92,74,29.97,29.85,13,6,20,0.00
2014-4-26,82.8,76.5,72.5,78.8,75.0,72.3,100,95,82,29.88,29.65,11,8,18,0.00
2014-4-27,84.0,78.4,74.1,77.0,75.4,74.1,100,91,74,29.65,29.47,17,10,29,0.00
2014-4-28,94.3,80.7,74.5,79.2,73.6,57.0,100,82,30,29.65,29.50,17,8,28,0.00
2014-4-29,93.2,80.1,73.2,76.1,60.8,38.1,100,62,25,29.88,29.59,21,10,28,0.04
2014-4-30,73.4,67.3,60.3,44.6,35.9,32.2,42,31,27,30.09,29.88,22,11,33,0.35
2014-5-1,67.6,64.1,60.3,41.0,34.4,31.5,48,33,28,30.15,30.00,11,7,21,0.00
2014-5-2,73.6,63.7,57.9,50.2,41.1,34.7,73,45,27,30.09,29.97,11,5,14,0.04
2014-5-3,77.9,66.6,56.3,54.1,49.3,40.8,87,57,32,30.12,30.03,13,8,21,0.00
2014-5-4,74.5,68.6,64.2,56.1,51.8,45.0,68,56,45,30.12,30.00,16,11,25,0.00
2014-5-5,74.7,68.7,64.2,63.1,55.1,50.0,90,63,49,30.03,29.85,12,10,23,0.00
2014-5-6,74.7,69.4,65.5,67.1,63.8,61.9,95,83,66,29.88,29.74,14,10,22,0.08
2014-5-7,75.0,70.6,66.9,71.8,69.1,66.2,100,95,84,29.88,29.74,14,10,24,0.00
2014-5-8,74.1,71.7,70.0,74.1,71.7,70.0,100,100,98,29.85,29.76,12,8,20,0.00
2014-5-9,74.1,72.1,67.5,74.1,71.9,67.5,100,100,95,30.00,29.76,22,8,28,0.99
2014-5-10,84.4,76.6,68.4,78.1,70.5,64.0,100,84,52,29.88,29.71,16,6,25,0.00
2014-5-11,85.3,78.2,73.4,79.7,75.8,73.4,100,93,77,29.82,29.68,12,8,20,0.00
2014-5-12,85.1,79.6,76.3,79.5,77.6,76.3,100,94,79,29.85,29.71,13,10,22,0.00
2014-5-13,77.9,71.8,67.1,77.7,68.0,55.8,100,89,60,30.09,29.79,25,14,38,2.33
2014-5-14,76.5,67.7,60.6,58.5,48.2,38.8,90,54,29,30.24,30.09,20,15,30,0.00
2014-5-15,78.1,70.0,62.1,50.9,42.1,37.4,60,37,28,30.30,30.15,9,6,20,0.00
2014-5-16,78.8,70.0,64.6,51.8,46.5,39.7,59,44,28,30.21,30.03,17,11,23,0.00
2014-5-17,76.6,70.3,65.5,59.9,54.6,51.6,74,58,44,30.06,29.94,17,12,29,0.00
2014-5-18,79.5,72.4,68.0,66.2,59.0,54.9,90,64,46,30.06,29.97,13,10,25,0.00
2014-5-19,79.0,72.9,68.0,69.8,66.0,61.2,96,81,56,30.03,29.97,12,9,20,0.00
2014-5-20,81.1,74.4,69.6,73.9,70.6,67.6,100,89,71,30.06,29.97,12,10,22,0.00
2014-5-21,82.0,75.9,71.1,73.8,71.2,69.6,98,86,68,30.06,29.97,13,10,22,0.00
2014-5-22,82.6,76.8,72.5,75.6,73.0,72.1,100,89,73,30.06,30.00,12,9,20,0.00
2014-5-23,82.4,77.0,73.4,74.7,72.9,70.3,99,88,69,30.06,29.94,14,10,25,0.00
2014-5-24,84.0,78.5,74.8,77.0,74.6,72.9,99,88,74,30.00,29.88,14,10,24,0.00
2014-5-25,84.9,79.1,75.6,77.2,74.7,72.1,99,87,70,29.97,29.88,13,10,21,0.00
2014-5-26,84.4,78.9,76.3,79.3,76.2,71.2,100,92,76,29.97,29.91,15,10,25,0.04
2014-5-27,85.1,79.4,77.0,79.7,77.0,74.1,100,93,77,29.94,29.79,15,11,25,0.00
2014-5-28,89.8,81.2,77.5,79.7,75.6,65.5,100,85,45,29.85,29.76,17,8,28,0.00
2014-5-29,90.1,80.8,73.6,75.6,68.7,58.6,99,71,36,29.85,29.76,7,3,11,0.00
2014-5-30,90.1,80.6,75.0,73.9,69.4,60.6,93,72,40,29.85,29.74,10,6,16,0.00
2014-5-31,87.8,79.3,74.5,73.6,70.7,62.6,95,76,52,29.85,29.79,10,6,17,0.00
2014-6-1,86.7,79.6,73.8,75.0,71.4,65.8,97,78,53,29.88,29.82,11,5,18,0.00
2014-6-2,87.1,80.4,75.7,77.0,74.4,72.5,97,83,64,29.91,29.85,12,8,20,0.00
2014-6-3,88.3,81.0,76.3,78.1,74.2,70.9,96,81,60,29.94,29.88,11,7,17,0.00
2014-6-4,87.8,81.0,76.6,76.6,74.1,71.8,92,81,63,29.91,29.82,10,8,19,0.00
2014-6-5,87.1,81.5,77.2,77.7,75.5,73.8,96,83,65,29.85,29.79,12,10,21,0.00
2014-6-6,87.6,82.1,78.1,78.4,76.1,74.5,93,83,66,29.91,29.82,12,10,21,0.08
2014-6-7,88.0,82.3,78.8,77.7,75.5,72.5,91,81,62,29.94,29.82,12,10,22,0.00
2014-6-8,87.8,81.9,78.8,77.5,75.9,72.5,92,83,62,29.91,29.76,14,11,25,0.00
2014-6-9,87.6,82.2,77.9,78.8,76.6,74.1,96,84,65,29.82,29.71,16,12,28,0.00
2014-6-10,90.5,83.0,78.6,80.4,78.0,74.1,98,86,60,29.85,29.76,14,8,24,0.00
2014-6-11,90.9,82.7,77.5,82.2,78.9,77.4,100,90,66,29.88,29.82,11,6,17,0.00
2014-6-12,89.6,83.7,79.5,81.3,79.6,78.4,100,88,72,29.85,29.76,13,10,22,0.00
2014-6-13,91.8,83.9,77.7,80.4,78.4,74.7,98,85,64,29.97,29.82,15,7,23,0.00
2014-6-14,91.2,83.9,79.0,79.5,77.8,74.5,97,83,60,29.91,29.79,11,8,20,0.00
2014-6-15,91.2,84.3,79.5,81.3,78.7,76.8,96,84,66,29.91,29.82,12,8,19,0.00
2014-6-16,90.5,84.3,80.1,80.4,79.2,75.9,98,85,64,30.00,29.91,12,9,22,0.00
2014-6-17,90.3,84.4,80.6,79.9,78.0,75.4,94,82,63,30.00,29.91,12,10,22,0.00
2014-6-18,90.3,84.3,80.8,79.7,76.9,73.0,94,80,59,29.97,29.88,15,11,24,0.00
2014-6-19,89.4,83.4,79.2,78.1,75.4,70.7,93,78,56,30.00,29.91,13,10,25,0.00
2014-6-20,87.8,82.6,78.6,81.7,76.4,70.3,94,82,66,30.03,29.94,12,8,24,0.31
2014-6-21,89.2,83.2,79.0,78.8,76.6,72.0,95,82,61,30.00,29.88,12,9,22,0.00
2014-6-22,87.6,82.1,79.3,78.4,76.6,73.8,93,84,65,29.94,29.82,15,11,26,0.00
2014-6-23,89.2,83.2,79.5,80.4,77.8,73.9,99,85,66,29.94,29.82,14,11,26,0.00
2014-6-24,90.1,83.0,79.5,82.6,80.3,78.8,100,92,75,30.00,29.91,11,8,19,0.00
2014-6-25,90.3,82.5,76.6,82.9,78.8,73.9,100,89,71,30.00,29.91,15,8,22,0.00
2014-6-26,86.4,80.4,74.7,82.0,77.7,74.1,100,92,76,29.97,29.85,17,10,30,0.28
2014-6-27,90.7,84.4,80.2,82.6,79.9,76.1,97,87,71,29.88,29.79,16,12,25,0.00
2014-6-28,90.9,84.8,80.8,83.1,81.0,78.3,96,89,76,29.94,29.82,16,12,28,0.00
2014-6-29,91.2,85.3,81.7,83.1,81.0,79.5,96,88,72,30.00,29.94,15,12,25,0.00
2014-6-30,89.6,84.4,80.8,80.4,78.9,76.8,95,84,70,30.00,29.88,15,12,27,0.00
2014-7-1,90.7,84.5,80.2,80.2,78.5,74.7,96,83,64,29.94,29.85,13,10,22,0.00
2014-7-2,92.3,84.9,79.7,82.8,78.5,75.2,98,83,62,30.03,29.91,10,7,17,0.00
2014-7-3,91.6,83.8,77.5,79.0,75.7,71.4,100,79,54,30.09,30.00,10,5,18,0.00
2014-7-4,91.2,83.8,77.5,77.9,74.8,70.9,97,76,54,30.12,30.03,12,6,18,0.00
2014-7-5,90.7,82.9,75.9,80.8,75.5,70.3,100,80,56,30.12,30.03,11,6,18,0.67
2014-7-6,89.6,82.4,77.4,77.2,72.3,66.7,92,73,52,30.06,29.94,12,8,21,0.00
2014-7-7,89.1,82.5,77.5,77.0,74.9,72.5,92,79,60,30.00,29.94,11,9,20,0.00
2014-7-8,89.2,83.0,77.9,79.0,74.7,67.5,93,77,51,30.03,29.94,13,9,22,0.00
2014-7-9,90.0,82.5,77.4,78.4,75.7,72.0,96,80,61,30.03,29.94,11,8,23,0.04
2014-7-10,84.7,75.8,70.9,77.4,73.5,69.4,100,93,66,30.03,29.94,19,5,32,2.99
2014-7-11,89.8,82.5,74.8,81.5,78.0,73.6,99,87,70,30.09,30.00,0,0,0,0.00
2014-7-12,90.7,83.3,76.8,81.1,77.1,74.7,99,83,64,30.12,30.00,0,0,0,0.00
2014-7-13,92.1,83.9,77.5,78.8,76.0,72.7,98,79,55,30.09,29.97,0,0,0,0.00
2014-7-14,90.1,83.2,78.6,79.3,76.2,72.3,95,80,60,30.00,29.91,0,0,0,0.00
2014-7-15,89.2,82.8,78.1,77.7,76.2,74.5,93,81,63,29.97,29.88,9,4,18,0.00
2014-7-16,89.6,83.1,78.4,78.3,76.4,73.9,93,81,64,29.97,29.85,10,7,18,0.00
2014-7-17,88.7,83.2,79.3,82.0,79.1,76.6,99,88,71,29.88,29.76,14,9,25,0.00
2014-7-18,86.2,81.6,79.3,83.1,79.7,76.8,99,94,80,29.91,29.79,11,5,19,0.00
2014-7-19,91.9,84.0,78.1,83.3,79.9,77.9,100,89,68,29.94,29.85,10,4,18,0.00
2014-7-20,92.7,85.7,81.1,85.1,81.7,78.3,100,89,74,29.97,29.88,11,5,21,0.00
2014-7-21,92.8,85.8,81.5,85.3,81.7,79.0,100,88,74,29.97,29.91,0,0,0,0.00
2014-7-22,93.6,86.2,81.0,84.7,81.3,79.3,100,87,68,30.00,29.94,0,0,0,0.00
2014-7-23,93.4,84.8,80.8,82.2,79.6,74.7,100,86,57,30.03,29.88,0,0,0,0.00
2014-7-24,93.0,84.7,79.5,80.8,78.1,73.0,100,82,57,30.00,29.91,0,0,0,0.00
2014-7-25,91.8,85.2,79.9,82.9,79.9,77.2,100,85,66,30.00,29.91,0,0,0,0.00
2014-7-26,92.1,85.3,80.4,83.5,80.5,79.0,99,86,69,30.03,29.94,0,0,0,0.00
2014-7-27,92.7,85.0,80.1,84.6,80.3,77.5,100,87,68,30.03,29.97,0,0,0,0.00
2014-7-28,94.1,85.1,78.6,84.6,79.5,75.0,100,85,61,30.09,30.00,0,0,0,0.00
2014-7-29,92.1,83.7,77.2,81.5,77.5,73.9,100,83,60,30.06,29.97,0,0,0,0.00
2014-7-30,92.3,83.9,77.4,80.6,75.9,70.3,100,79,52,30.03,29.88,0,0,0,0.00
2014-7-31,91.2,85.6,79.5,83.1,79.8,78.3,100,84,68,29.94,29.85,0,0,0,0.00
2014-8-1,92.1,84.0,78.8,83.3,79.9,76.8,100,89,62,29.94,29.85,0,0,0,0.00
2014-8-2,86.5,81.6,75.2,80.8,76.0,70.0,100,84,59,30.00,29.91,0,0,0,1.10
2014-8-3,89.8,81.4,75.6,76.1,71.0,65.1,94,73,48,30.00,29.88,0,0,0,0.00
2014-8-4,91.9,82.7,77.0,77.5,71.7,63.5,99,73,41,29.97,29.88,0,0,0,0.00
2014-8-5,92.1,83.3,76.8,77.0,72.8,65.1,95,73,43,30.03,29.91,0,0,0,0.00
2014-8-6,90.9,83.8,78.6,81.7,78.0,75.2,99,84,62,30.00,29.88,0,0,0,0.00
2014-8-7,90.9,84.7,80.1,82.0,79.8,78.4,99,86,70,29.94,29.82,0,0,0,0.00
2014-8-8,93.0,85.4,80.6,83.8,80.0,72.9,99,85,56,29.94,29.85,0,0,0,0.00
2014-8-9,92.8,85.8,80.2,82.6,80.3,78.6,100,85,66,30.00,29.88,0,0,0,0.00
2014-8-10,92.8,86.2,81.3,83.3,80.2,75.9,98,83,61,30.00,29.91,0,0,0,0.00
2014-8-11,94.5,85.6,81.1,81.5,79.0,75.2,99,82,55,30.03,29.88,0,0,0,0.00
2014-8-12,93.4,85.0,80.8,80.8,77.7,66.9,98,80,47,30.03,29.88,0,0,0,0.00
2014-8-13,94.8,84.7,79.3,80.2,75.6,65.8,95,76,41,30.00,29.88,0,0,0,0.00
2014-8-14,90.1,83.3,78.6,81.0,77.8,73.2,100,85,58,30.00,29.88,0,0,0,0.00
2014-8-15,92.1,84.9,80.1,80.6,77.2,73.9,94,79,58,29.97,29.85,0,0,0,0.00
2014-8-16,91.0,85.2,81.3,80.1,78.6,76.3,94,82,64,29.94,29.85,0,0,0,0.00
2014-8-17,91.0,85.2,81.1,81.9,79.7,76.3,96,84,63,29.97,29.85,0,0,0,0.00
2014-8-18,92.1,85.0,80.8,82.8,79.4,71.8,100,85,65,29.94,29.82,12,4,20,0.00
2014-8-19,91.8,84.7,80.6,83.1,79.4,76.1,98,85,63,29.91,29.79,11,6,20,0.00
2014-8-20,93.0,85.4,80.2,83.3,80.1,77.7,100,85,62,29.97,29.85,10,5,21,0.00
2014-8-21,91.2,84.9,79.7,82.8,80.5,79.0,100,88,68,30.03,29.94,10,6,20,0.08
2014-8-22,91.4,85.0,79.7,83.3,79.6,75.4,100,85,61,30.03,29.94,8,5,15,0.00
2014-8-23,93.0,85.5,79.0,82.8,78.9,73.0,100,82,55,29.97,29.88,8,3,15,0.00
2014-8-24,93.6,85.7,79.7,82.9,78.8,74.5,100,82,57,29.91,29.82,8,4,14,0.00
2014-8-25,93.6,85.4,79.3,80.8,76.6,67.5,99,78,43,29.91,29.82,7,4,15,0.00
2014-8-26,93.0,83.9,78.8,79.2,75.1,67.3,95,77,44,29.94,29.88,12,5,20,0.00
2014-8-27,90.1,83.2,78.6,78.4,75.7,69.4,97,80,53,29.94,29.85,15,8,27,0.00
2014-8-28,89.2,83.0,77.2,79.3,76.9,72.5,97,83,59,29.88,29.79,14,7,24,0.08
2014-8-29,86.7,81.4,75.0,79.9,77.2,75.0,100,88,71,29.85,29.76,12,4,24,0.35
2014-8-30,84.6,80.3,75.4,79.7,77.5,75.4,100,92,77,29.91,29.82,11,5,18,0.08
2014-8-31,90.3,83.0,75.6,83.8,79.4,75.4,100,90,70,29.97,29.88,11,6,24,0.56
2014-9-1,92.3,86.4,81.9,82.0,79.4,77.0,96,81,63,29.91,29.85,9,7,17,0.00
2014-9-2,91.8,86.0,82.9,80.4,76.6,69.1,89,75,54,29.91,29.85,13,9,22,0.00
2014-9-3,91.2,84.4,80.6,81.0,77.9,72.9,94,82,58,29.94,29.85,13,8,23,0.08
2014-9-4,91.4,84.9,80.8,81.0,78.5,72.9,95,82,58,29.97,29.88,8,1,14,0.00
2014-9-5,92.1,85.3,81.7,81.0,77.6,73.6,91,79,58,30.00,29.91,0,0,0,0.00
2014-9-6,90.3,83.9,79.7,78.1,75.5,70.9,92,77,57,30.03,29.91,0,0,0,0.00
2014-9-7,88.2,82.1,79.0,78.1,74.6,69.1,93,79,56,30.03,29.91,0,0,0,0.00
2014-9-8,89.6,83.0,77.7,78.1,73.1,66.4,92,74,52,30.00,29.91,0,0,0,0.00
2014-9-9,89.8,83.8,79.5,78.1,73.7,70.7,88,73,54,29.97,29.85,0,0,0,0.00
2014-9-10,90.1,84.3,80.6,76.5,74.2,70.7,84,73,54,29.88,29.79,0,0,0,0.00
2014-9-11,89.8,83.9,79.0,78.8,75.1,70.7,90,76,58,29.91,29.82,0,0,0,0.00
2014-9-12,90.7,82.8,76.8,79.3,75.3,71.1,91,79,57,29.94,29.85,0,0,0,0.04
2014-9-13,78.4,72.8,67.5,76.3,71.6,67.5,100,96,86,30.09,29.91,0,0,0,0.44
2014-9-14,77.4,73.0,69.4,71.2,69.8,68.0,100,90,74,30.12,30.03,0,0,0,0.04
2014-9-15,89.1,79.3,71.6,79.3,73.0,69.8,97,83,57,30.06,29.94,0,0,0,0.00
2014-9-16,89.1,83.3,79.5,81.1,78.3,75.4,100,86,67,30.00,29.88,0,0,0,0.04
2014-9-17,90.0,84.2,80.1,80.4,77.4,74.1,97,81,61,29.94,29.82,0,0,0,0.00
2014-9-18,90.7,84.3,80.2,81.3,77.5,73.6,97,81,59,29.85,29.74,0,0,0,0.00
2014-9-19,86.7,81.6,77.5,82.8,78.4,73.8,100,90,79,29.85,29.79,0,0,0,0.16
2014-9-20,90.0,83.8,79.5,81.5,77.7,73.9,97,83,63,29.91,29.82,0,0,0,0.00
2014-9-21,87.4,80.9,74.5,82.0,74.1,62.6,100,82,53,29.97,29.85,0,0,0,1.03
2014-9-22,88.7,83.0,78.3,76.6,66.6,58.3,93,59,36,30.03,29.94,0,0,0,0.00
2014-9-23,84.7,79.0,72.0,75.2,68.0,55.4,100,71,47,30.06,29.97,0,0,0,1.46
2014-9-24,84.4,78.2,72.9,68.7,62.6,54.9,83,60,39,30.06,29.97,0,0,0,0.00
2014-9-25,84.9,77.1,70.5,73.6,67.1,61.5,82,72,54,30.03,29.94,0,0,0,0.00
2014-9-26,81.5,77.2,73.9,72.0,67.8,60.1,91,74,50,30.00,29.91,0,0,0,0.00
2014-9-27,83.3,73.4,66.0,76.3,68.0,57.7,100,84,57,29.94,29.85,14,3,23,0.48
2014-9-28,80.4,74.1,68.5,75.0,71.3,66.2,100,92,74,29.94,29.85,18,11,24,0.71
2014-9-29,86.0,78.6,73.6,77.2,74.3,70.9,100,88,63,29.88,29.82,12,8,18,0.00
2014-9-30,86.4,79.9,73.4,80.6,76.2,73.4,100,89,69,29.82,29.74,11,5,16,0.48
2014-10-1,89.8,83.6,77.9,82.2,79.4,76.6,99,88,66,29.79,29.74,9,6,18,0.00
2014-10-2,91.6,85.7,82.4,84.4,81.8,80.6,97,89,72,29.88,29.76,11,8,20,0.00
2014-10-3,84.0,79.6,73.6,82.4,64.5,48.6,100,66,32,30.09,29.85,21,9,28,0.52
2014-10-4,81.0,75.1,71.2,63.5,56.8,49.6,62,53,45,30.12,29.97,13,9,22,0.00
2014-10-5,84.9,78.4,72.0,72.7,63.5,57.2,83,61,47,29.97,29.79,13,8,20,0.00
2014-10-6,86.9,81.1,76.5,78.6,74.1,70.3,96,80,58,29.85,29.79,13,7,22,0.00
2014-10-7,87.1,81.1,75.2,77.7,74.0,70.0,98,80,58,29.94,29.85,10,5,19,0.00
2014-10-8,87.8,82.1,76.8,77.5,74.6,72.7,93,79,62,30.00,29.91,10,1,16,0.00
2014-10-9,86.7,81.7,75.6,77.0,74.4,70.7,98,80,60,29.97,29.85,0,0,0,0.04
2014-10-10,87.8,83.1,79.9,77.5,74.8,71.1,90,77,59,29.91,29.82,0,0,0,0.08
2014-10-11,88.9,80.3,70.7,77.7,75.3,66.9,100,86,58,29.97,29.85,0,0,0,1.06
2014-10-12,84.7,76.1,67.3,80.2,73.1,67.3,100,91,73,29.94,29.74,0,0,0,0.04
2014-10-13,85.8,81.0,69.8,77.0,63.6,41.7,87,60,25,30.00,29.68,14,0,21,0.00
2014-10-14,79.9,70.2,63.1,51.1,41.8,34.0,60,38,26,30.15,30.00,14,8,18,0.00
2014-10-15,79.3,70.1,63.0,59.7,45.7,34.9,81,44,26,30.12,30.00,9,5,15,0.00
2014-10-16,78.1,70.7,63.9,56.7,51.1,42.6,76,52,34,30.00,29.88,10,8,19,0.00
2014-10-17,80.8,73.8,67.8,68.4,61.2,55.9,87,66,45,29.94,29.85,12,8,18,0.00
2014-10-18,82.6,76.9,74.1,72.9,68.8,64.2,90,77,61,29.97,29.88,11,8,22,0.00
2014-10-19,81.3,75.9,72.7,64.2,58.2,51.4,69,55,37,30.00,29.94,12,9,20,0.00
2014-10-20,74.7,71.3,66.6,71.6,66.7,58.8,100,86,60,29.97,29.88,13,7,23,1.46
2014-10-21,79.7,73.8,70.3,70.7,65.7,60.3,91,77,59,29.97,29.91,13,9,22,0.00
2014-10-22,80.2,74.8,71.2,63.3,59.1,56.1,71,59,47,30.03,29.94,12,10,22,0.00
2014-10-23,77.5,71.5,66.9,65.7,58.6,55.2,92,65,52,30.09,30.00,12,6,17,0.00
2014-10-24,78.1,71.3,66.0,65.8,56.0,46.9,94,61,35,30.12,30.03,9,5,14,0.00
2014-10-25,78.3,71.1,64.0,65.8,58.9,52.9,96,67,51,30.15,30.06,8,5,14,0.04
2014-10-26,77.5,71.1,65.3,66.6,58.4,53.8,94,65,52,30.06,29.91,10,6,19,0.00
2014-10-27,80.2,74.7,69.6,64.8,58.0,53.6,81,57,43,29.94,29.82,13,9,22,0.00
2014-10-28,81.3,75.7,72.3,66.0,60.7,57.6,76,60,45,30.00,29.85,12,7,20,0.00
2014-10-29,81.0,74.1,68.7,70.9,65.0,60.6,98,75,51,30.09,30.00,8,4,12,0.00
2014-10-30,80.6,73.6,68.7,73.2,68.3,65.8,100,84,63,30.06,29.97,11,6,18,0.04
2014-10-31,75.9,70.1,63.7,69.4,54.1,34.7,99,64,26,30.24,30.00,15,8,24,0.16
2014-11-1,70.5,63.0,55.4,55.6,47.9,35.2,83,59,37,30.30,30.21,15,10,24,0.00
2014-11-2,73.0,67.7,62.8,51.4,47.1,43.0,58,48,37,30.27,30.15,13,9,22,0.00
2014-11-3,78.3,72.7,68.7,58.8,54.5,48.0,63,53,44,30.15,30.06,14,11,24,0.00
2014-11-4,78.1,73.1,69.1,68.7,62.9,55.8,95,71,56,30.06,29.94,12,8,22,0.00
2014-11-5,71.2,65.5,60.6,67.8,64.8,60.6,100,98,86,30.06,29.94,17,10,24,0.88
2014-11-6,65.1,61.6,58.3,65.1,61.2,54.3,100,99,85,30.18,30.03,19,13,30,1.64
2014-11-7,60.4,58.7,56.7,57.4,51.3,46.6,96,77,65,30.21,30.03,16,9,23,0.00
2014-11-8,67.6,61.8,55.9,54.0,44.5,33.6,76,55,31,30.12,30.00,14,3,20,0.00
2014-11-9,68.2,60.8,52.5,49.5,41.7,31.8,84,52,29,30.15,29.94,9,4,14,0.00
2014-11-10,73.9,67.5,57.9,67.3,55.9,42.4,93,67,49,29.94,29.76,13,7,22,0.00
2014-11-11,76.6,63.8,50.4,72.3,56.5,33.4,100,78,52,30.09,29.76,20,10,31,0.00
2014-11-12,50.4,44.3,40.1,39.2,33.1,29.5,91,66,51,30.30,30.09,20,15,30,0.36
2014-11-13,41.5,37.2,32.0,35.8,23.5,12.7,99,61,35,30.47,30.30,24,16,34,0.08
2014-11-14,43.5,39.2,34.7,29.1,16.3,10.8,57,39,34,30.41,30.21,17,11,28,0.00
2014-11-15,52.2,47.7,42.4,52.2,43.8,28.9,100,87,56,30.21,29.97,15,10,24,0.00
2014-11-16,58.1,53.4,46.6,58.1,53.3,42.6,100,100,85,30.09,29.79,24,8,34,0.04
2014-11-17,50.5,43.7,35.8,42.1,25.6,17.4,85,52,33,30.41,30.09,28,16,45,0.00
2014-11-18,56.8,48.7,41.2,38.1,27.2,17.8,61,43,36,30.50,30.36,17,10,28,0.00
2014-11-19,68.9,57.0,48.2,58.3,49.9,38.3,97,79,43,30.36,30.15,7,4,10,0.00
2014-11-20,67.8,64.5,59.0,67.8,64.4,57.9,100,100,96,30.15,29.97,11,3,18,0.16
2014-11-21,75.9,70.2,64.9,74.8,68.4,64.9,100,94,79,30.06,29.97,11,5,18,0.04
2014-11-22,74.7,70.6,64.6,73.9,69.9,63.7,100,98,93,30.03,29.68,25,9,33,0.44
2014-11-23,77.2,68.4,61.5,70.7,63.9,56.7,100,87,61,29.74,29.56,11,7,16,0.00
2014-11-24,68.9,62.5,57.0,64.4,40.1,32.0,91,46,29,30.12,29.71,22,12,29,0.00
2014-11-25,66.0,59.0,55.0,42.6,34.4,27.3,62,41,29,30.30,30.09,14,7,23,0.00
2014-11-26,68.4,60.8,53.1,56.7,42.8,33.4,86,54,29,30.27,30.18,14,7,20,0.12
2014-11-27,67.6,61.2,53.6,58.3,54.1,50.9,99,79,57,30.41,30.27,14,6,22,0.00
2014-11-28,72.3,65.3,59.5,63.3,58.0,45.3,98,80,38,30.33,30.09,9,4,15,0.00
2014-11-29,75.0,69.1,64.6,68.7,65.2,62.6,100,88,67,30.09,29.97,10,6,20,0.00
2014-11-30,73.6,70.1,66.9,70.2,68.4,66.6,100,95,87,30.09,29.97,7,4,13,0.00
2014-12-1,79.7,65.2,48.6,76.5,62.4,42.3,100,91,61,30.30,30.09,20,7,27,0.00
2014-12-2,56.5,51.9,48.0,55.9,43.9,37.4,98,75,61,30.33,30.18,17,9,26,0.00
2014-12-3,70.3,64.2,55.0,68.9,63.7,55.0,100,98,92,30.18,30.06,12,9,21,0.00
2014-12-4,77.2,71.0,66.9,76.6,70.6,66.9,100,99,92,30.12,30.00,9,5,15,0.12
2014-12-5,80.8,74.3,70.5,80.8,73.7,70.5,100,98,91,30.12,30.00,7,2,14,0.00
2014-12-6,79.3,72.9,66.4,76.5,70.2,61.7,100,92,73,30.27,30.12,14,5,19,0.04
2014-12-7,67.1,65.8,63.3,67.1,65.5,63.0,100,99,89,30.27,30.15,11,7,20,0.04
2014-12-8,69.4,64.4,61.5,64.6,58.9,53.6,100,83,58,30.30,30.18,12,5,19,0.00
2014-12-9,71.1,64.6,58.3,64.6,59.3,51.6,100,85,52,30.33,30.21,7,3,13,0.00
2014-12-10,76.1,69.3,63.1,72.5,64.9,61.5,100,87,64,30.21,30.09,6,2,12,0.00
2014-12-11,76.6,71.5,68.4,67.6,66.0,62.4,94,83,65,30.18,30.09,6,3,13,0.00
2014-12-12,77.9,71.7,67.8,67.8,65.0,60.6,96,81,56,30.24,30.15,6,2,14,0.00
2014-12-13,77.9,70.7,65.1,73.8,67.8,65.1,100,91,69,30.18,30.03,4,1,9,0.00
2014-12-14,78.4,73.0,69.6,74.8,71.6,69.6,100,96,83,30.03,29.85,10,5,19,0.00
2014-12-15,78.3,73.0,68.9,76.5,72.5,68.9,100,99,91,30.09,29.88,8,1,15,0.00
2014-12-16,72.9,67.1,62.8,72.9,47.5,38.8,100,51,34,30.27,30.09,12,7,25,0.00
2014-12-17,76.5,70.2,61.9,73.2,66.5,48.0,100,88,60,30.18,29.97,10,5,17,0.00
2014-12-18,76.6,72.9,70.7,75.7,72.5,70.7,100,99,95,30.06,29.94,7,2,14,0.00
2014-12-19,71.8,65.9,60.1,71.8,65.4,59.7,100,98,90,30.09,29.91,17,9,24,0.08
2014-12-20,60.8,58.2,55.8,59.7,56.5,54.7,100,94,88,30.18,30.06,17,9,22,0.00
2014-12-21,65.3,61.7,58.3,65.3,61.0,57.9,100,98,91,30.15,29.82,12,5,15,0.00
2014-12-22,73.0,67.6,63.5,71.6,67.1,63.5,100,98,89,29.82,29.59,13,3,17,0.00
2014-12-23,70.5,65.6,56.8,70.5,58.0,38.5,100,79,48,30.00,29.50,26,10,36,0.00
2014-12-24,62.1,55.7,50.2,38.7,33.9,28.4,57,45,30,30.18,29.97,22,12,30,0.00
2014-12-25,69.3,61.1,50.5,58.5,44.8,30.4,73,56,41,30.15,29.97,11,5,20,0.00
2014-12-26,73.8,70.0,67.8,72.1,67.4,58.5,100,92,72,29.97,29.82,10,5,18,0.00
2014-12-27,74.3,66.5,52.0,74.3,65.3,48.4,100,96,81,30.15,29.88,22,10,31,0.00
2014-12-28,51.8,46.7,42.8,50.4,46.4,42.8,100,99,91,30.27,30.09,21,12,38,0.60
2014-12-29,59.5,51.4,44.1,54.5,48.9,43.9,100,92,73,30.21,30.06,9,2,12,0.00
2014-12-30,60.8,58.1,55.2,59.9,55.6,50.7,100,92,80,30.30,30.15,14,9,25,0.00
2014-12-31,55.4,47.2,44.8,51.3,43.7,39.0,96,88,76,30.36,30.27,20,15,33,0.00
2015-1-1,47.7,45.9,43.9,47.3,44.5,39.6,100,95,78,30.27,30.06,16,11,27,0.00
2015-1-2,51.8,48.7,45.5,51.8,48.7,45.5,100,100,100,30.12,29.91,18,7,28,0.08